owner,sensor,date,latitude,longitude,vertical_datum,sea_water_practical_salinity,qcFlag 
ENP,ioos.station.NOAA.NDBC:LRIF1:1,2019-11-01T00:00:00Z,25.2840,-80.8940,1.5,3.79,11111222 
ENP,ioos.station.NOAA.NDBC:LRIF1:1,2019-11-01T01:00:00Z,25.2840,-80.8940,1.5,3.81,11111222 
ENP,ioos.station.NOAA.NDBC:LRIF1:1,2019-11-01T02:00:00Z,25.2840,-80.8940,1.5,3.82,11111222 
ENP,ioos.station.NOAA.NDBC:LRIF1:1,2019-11-01T04:00:00Z,25.2840,-80.8940,1.5,4.04,11111222 
ENP,ioos.station.NOAA.NDBC:LRIF1:1,2019-11-01T05:00:00Z,25.2840,-80.8940,1.5,4.14,11111222 
ENP,ioos.station.NOAA.NDBC:LRIF1:1,2019-11-01T06:00:00Z,25.2840,-80.8940,1.5,3.81,11111222 
ENP,ioos.station.NOAA.NDBC:LRIF1:1,2019-11-01T07:00:00Z,25.2840,-80.8940,1.5,3.7,11111222 
ENP,ioos.station.NOAA.NDBC:LRIF1:1,2019-11-01T08:00:00Z,25.2840,-80.8940,1.5,3.64,11111222 
ENP,ioos.station.NOAA.NDBC:LRIF1:1,2019-11-01T09:00:00Z,25.2840,-80.8940,1.5,3.57,11111222 
ENP,ioos.station.NOAA.NDBC:LRIF1:1,2019-11-01T10:00:00Z,25.2840,-80.8940,1.5,3.55,11111222 
ENP,ioos.station.NOAA.NDBC:LRIF1:1,2019-11-01T11:00:00Z,25.2840,-80.8940,1.5,3.58,11111222 
ENP,ioos.station.NOAA.NDBC:LRIF1:1,2019-11-01T12:00:00Z,25.2840,-80.8940,1.5,3.59,11111222 
ENP,ioos.station.NOAA.NDBC:LRIF1:1,2019-11-01T13:00:00Z,25.2840,-80.8940,1.5,3.95,11111222 
ENP,ioos.station.NOAA.NDBC:LRIF1:1,2019-11-01T15:00:00Z,25.2840,-80.8940,1.5,5.16,11111222 
ENP,ioos.station.NOAA.NDBC:LRIF1:1,2019-11-01T17:00:00Z,25.2840,-80.8940,1.5,5.68,11111222 
ENP,ioos.station.NOAA.NDBC:LRIF1:1,2019-11-01T18:00:00Z,25.2840,-80.8940,1.5,4.94,11111222 
ENP,ioos.station.NOAA.NDBC:LRIF1:1,2019-11-01T19:00:00Z,25.2840,-80.8940,1.5,4.82,11111222 
ENP,ioos.station.NOAA.NDBC:LRIF1:1,2019-11-01T20:00:00Z,25.2840,-80.8940,1.5,4.36,11111222 
ENP,ioos.station.NOAA.NDBC:LRIF1:1,2019-11-01T21:00:00Z,25.2840,-80.8940,1.5,4.02,11111222 
ENP,ioos.station.NOAA.NDBC:LRIF1:1,2019-11-01T23:00:00Z,25.2840,-80.8940,1.5,3.8,11111222 
ENP,ioos.station.NOAA.NDBC:LRIF1:1,2019-11-02T00:00:00Z,25.2840,-80.8940,1.5,3.68,11111222 
ENP,ioos.station.NOAA.NDBC:LRIF1:1,2019-11-02T02:00:00Z,25.2840,-80.8940,1.5,3.6,11111222 
ENP,ioos.station.NOAA.NDBC:LRIF1:1,2019-11-02T04:00:00Z,25.2840,-80.8940,1.5,3.61,11111222 
ENP,ioos.station.NOAA.NDBC:LRIF1:1,2019-11-02T06:00:00Z,25.2840,-80.8940,1.5,3.68,11111222 
ENP,ioos.station.NOAA.NDBC:LRIF1:1,2019-11-02T07:00:00Z,25.2840,-80.8940,1.5,3.68,11111222 
ENP,ioos.station.NOAA.NDBC:LRIF1:1,2019-11-02T08:00:00Z,25.2840,-80.8940,1.5,3.58,11111222 
ENP,ioos.station.NOAA.NDBC:LRIF1:1,2019-11-02T09:00:00Z,25.2840,-80.8940,1.5,3.44,11111222 
ENP,ioos.station.NOAA.NDBC:LRIF1:1,2019-11-02T10:00:00Z,25.2840,-80.8940,1.5,3.41,11111222 
ENP,ioos.station.NOAA.NDBC:LRIF1:1,2019-11-02T11:00:00Z,25.2840,-80.8940,1.5,3.4,11111222 
ENP,ioos.station.NOAA.NDBC:LRIF1:1,2019-11-02T13:00:00Z,25.2840,-80.8940,1.5,3.38,11111222 
ENP,ioos.station.NOAA.NDBC:LRIF1:1,2019-11-02T14:00:00Z,25.2840,-80.8940,1.5,3.42,11111222 
ENP,ioos.station.NOAA.NDBC:LRIF1:1,2019-11-02T15:00:00Z,25.2840,-80.8940,1.5,3.81,11111222 
ENP,ioos.station.NOAA.NDBC:LRIF1:1,2019-11-02T16:00:00Z,25.2840,-80.8940,1.5,4.13,11111222 
ENP,ioos.station.NOAA.NDBC:LRIF1:1,2019-11-02T17:00:00Z,25.2840,-80.8940,1.5,3.96,11111222 
ENP,ioos.station.NOAA.NDBC:LRIF1:1,2019-11-02T18:00:00Z,25.2840,-80.8940,1.5,3.76,11111222 
ENP,ioos.station.NOAA.NDBC:LRIF1:1,2019-11-02T19:00:00Z,25.2840,-80.8940,1.5,3.53,11111222 
ENP,ioos.station.NOAA.NDBC:LRIF1:1,2019-11-02T20:00:00Z,25.2840,-80.8940,1.5,3.48,11111222 
ENP,ioos.station.NOAA.NDBC:LRIF1:1,2019-11-02T21:00:00Z,25.2840,-80.8940,1.5,3.4,11111222 
ENP,ioos.station.NOAA.NDBC:LRIF1:1,2019-11-02T22:00:00Z,25.2840,-80.8940,1.5,3.37,11111222 
ENP,ioos.station.NOAA.NDBC:LRIF1:1,2019-11-02T23:00:00Z,25.2840,-80.8940,1.5,3.27,11111222 
ENP,ioos.station.NOAA.NDBC:LRIF1:1,2019-11-03T00:00:00Z,25.2840,-80.8940,1.5,3.19,11111222 
ENP,ioos.station.NOAA.NDBC:LRIF1:1,2019-11-03T01:00:00Z,25.2840,-80.8940,1.5,3.09,11111222 
ENP,ioos.station.NOAA.NDBC:LRIF1:1,2019-11-03T03:00:00Z,25.2840,-80.8940,1.5,3.05,11111222 
ENP,ioos.station.NOAA.NDBC:LRIF1:1,2019-11-03T05:00:00Z,25.2840,-80.8940,1.5,3.04,11111222 
ENP,ioos.station.NOAA.NDBC:LRIF1:1,2019-11-03T06:00:00Z,25.2840,-80.8940,1.5,3.05,11111222 
ENP,ioos.station.NOAA.NDBC:LRIF1:1,2019-11-03T07:00:00Z,25.2840,-80.8940,1.5,3.05,11111222 
ENP,ioos.station.NOAA.NDBC:LRIF1:1,2019-11-03T08:00:00Z,25.2840,-80.8940,1.5,3.03,11111222 
ENP,ioos.station.NOAA.NDBC:LRIF1:1,2019-11-03T09:00:00Z,25.2840,-80.8940,1.5,2.91,11111222 
ENP,ioos.station.NOAA.NDBC:LRIF1:1,2019-11-03T10:00:00Z,25.2840,-80.8940,1.5,2.83,11111222 
ENP,ioos.station.NOAA.NDBC:LRIF1:1,2019-11-03T11:00:00Z,25.2840,-80.8940,1.5,2.79,11111222 
ENP,ioos.station.NOAA.NDBC:LRIF1:1,2019-11-03T12:00:00Z,25.2840,-80.8940,1.5,2.79,11111222 
ENP,ioos.station.NOAA.NDBC:LRIF1:1,2019-11-03T13:00:00Z,25.2840,-80.8940,1.5,2.78,11111222 
ENP,ioos.station.NOAA.NDBC:LRIF1:1,2019-11-03T14:00:00Z,25.2840,-80.8940,1.5,2.78,11111222 
ENP,ioos.station.NOAA.NDBC:LRIF1:1,2019-11-03T15:00:00Z,25.2840,-80.8940,1.5,2.78,11111222 
ENP,ioos.station.NOAA.NDBC:LRIF1:1,2019-11-03T16:00:00Z,25.2840,-80.8940,1.5,2.88,11111222 
ENP,ioos.station.NOAA.NDBC:LRIF1:1,2019-11-03T17:00:00Z,25.2840,-80.8940,1.5,2.97,11111222 
ENP,ioos.station.NOAA.NDBC:LRIF1:1,2019-11-03T18:00:00Z,25.2840,-80.8940,1.5,2.97,11111222 
ENP,ioos.station.NOAA.NDBC:LRIF1:1,2019-11-03T19:00:00Z,25.2840,-80.8940,1.5,2.88,11111222 
ENP,ioos.station.NOAA.NDBC:LRIF1:1,2019-11-03T20:00:00Z,25.2840,-80.8940,1.5,2.79,11111222 
ENP,ioos.station.NOAA.NDBC:LRIF1:1,2019-11-03T21:00:00Z,25.2840,-80.8940,1.5,2.72,11111222 
ENP,ioos.station.NOAA.NDBC:LRIF1:1,2019-11-03T22:00:00Z,25.2840,-80.8940,1.5,2.65,11111222 
ENP,ioos.station.NOAA.NDBC:LRIF1:1,2019-11-03T23:00:00Z,25.2840,-80.8940,1.5,2.57,11111222 
ENP,ioos.station.NOAA.NDBC:LRIF1:1,2019-11-04T00:00:00Z,25.2840,-80.8940,1.5,2.51,11111222 
ENP,ioos.station.NOAA.NDBC:LRIF1:1,2019-11-04T02:00:00Z,25.2840,-80.8940,1.5,2.39,11111222 
ENP,ioos.station.NOAA.NDBC:LRIF1:1,2019-11-04T03:00:00Z,25.2840,-80.8940,1.5,2.34,11111222 
ENP,ioos.station.NOAA.NDBC:LRIF1:1,2019-11-04T05:00:00Z,25.2840,-80.8940,1.5,2.27,11111222 
ENP,ioos.station.NOAA.NDBC:LRIF1:1,2019-11-04T16:00:00Z,25.2840,-80.8940,1.5,1.9,11111222 
ENP,ioos.station.NOAA.NDBC:LRIF1:1,2019-11-04T17:00:00Z,25.2840,-80.8940,1.5,1.94,11111222 
ENP,ioos.station.NOAA.NDBC:LRIF1:1,2019-11-04T18:00:00Z,25.2840,-80.8940,1.5,2.14,11111222 
ENP,ioos.station.NOAA.NDBC:LRIF1:1,2019-11-04T19:00:00Z,25.2840,-80.8940,1.5,2.3,11111222 
ENP,ioos.station.NOAA.NDBC:LRIF1:1,2019-11-04T20:00:00Z,25.2840,-80.8940,1.5,2.11,11111222 
ENP,ioos.station.NOAA.NDBC:LRIF1:1,2019-11-04T21:00:00Z,25.2840,-80.8940,1.5,2.03,11111222 
ENP,ioos.station.NOAA.NDBC:LRIF1:1,2019-11-04T22:00:00Z,25.2840,-80.8940,1.5,2.01,11111222 
ENP,ioos.station.NOAA.NDBC:LRIF1:1,2019-11-04T23:00:00Z,25.2840,-80.8940,1.5,1.98,11111222 
ENP,ioos.station.NOAA.NDBC:LRIF1:1,2019-11-05T00:00:00Z,25.2840,-80.8940,1.5,1.92,11111222 
ENP,ioos.station.NOAA.NDBC:LRIF1:1,2019-11-05T01:00:00Z,25.2840,-80.8940,1.5,1.88,11111222 
ENP,ioos.station.NOAA.NDBC:LRIF1:1,2019-11-05T03:00:00Z,25.2840,-80.8940,1.5,1.85,11111222 
ENP,ioos.station.NOAA.NDBC:LRIF1:1,2019-11-05T05:00:00Z,25.2840,-80.8940,1.5,1.81,11111222 
ENP,ioos.station.NOAA.NDBC:LRIF1:1,2019-11-05T07:00:00Z,25.2840,-80.8940,1.5,1.86,11111222 
ENP,ioos.station.NOAA.NDBC:LRIF1:1,2019-11-05T08:00:00Z,25.2840,-80.8940,1.5,1.98,11111222 
ENP,ioos.station.NOAA.NDBC:LRIF1:1,2019-11-05T09:00:00Z,25.2840,-80.8940,1.5,2.1,11111222 
ENP,ioos.station.NOAA.NDBC:LRIF1:1,2019-11-05T10:00:00Z,25.2840,-80.8940,1.5,2.1,11111222 
ENP,ioos.station.NOAA.NDBC:LRIF1:1,2019-11-05T11:00:00Z,25.2840,-80.8940,1.5,2.01,11111222 
ENP,ioos.station.NOAA.NDBC:LRIF1:1,2019-11-05T12:00:00Z,25.2840,-80.8940,1.5,1.89,11111222 
ENP,ioos.station.NOAA.NDBC:LRIF1:1,2019-11-05T13:00:00Z,25.2840,-80.8940,1.5,1.84,11111222 
ENP,ioos.station.NOAA.NDBC:LRIF1:1,2019-11-05T14:00:00Z,25.2840,-80.8940,1.5,1.81,11111222 
ENP,ioos.station.NOAA.NDBC:LRIF1:1,2019-11-05T15:00:00Z,25.2840,-80.8940,1.5,1.81,11111222 
ENP,ioos.station.NOAA.NDBC:LRIF1:1,2019-11-05T16:00:00Z,25.2840,-80.8940,1.5,1.81,11111222 
ENP,ioos.station.NOAA.NDBC:LRIF1:1,2019-11-05T17:00:00Z,25.2840,-80.8940,1.5,1.86,11111222 
ENP,ioos.station.NOAA.NDBC:LRIF1:1,2019-11-05T18:00:00Z,25.2840,-80.8940,1.5,2.05,11111222 
ENP,ioos.station.NOAA.NDBC:LRIF1:1,2019-11-05T19:00:00Z,25.2840,-80.8940,1.5,2.45,11111222 
ENP,ioos.station.NOAA.NDBC:LRIF1:1,2019-11-05T20:00:00Z,25.2840,-80.8940,1.5,2.95,11111222 
ENP,ioos.station.NOAA.NDBC:LRIF1:1,2019-11-05T21:00:00Z,25.2840,-80.8940,1.5,2.8,11111222 
ENP,ioos.station.NOAA.NDBC:LRIF1:1,2019-11-05T22:00:00Z,25.2840,-80.8940,1.5,2.36,11111222 
ENP,ioos.station.NOAA.NDBC:LRIF1:1,2019-11-05T23:00:00Z,25.2840,-80.8940,1.5,2.23,11111222 
ENP,ioos.station.NOAA.NDBC:LRIF1:1,2019-11-06T00:00:00Z,25.2840,-80.8940,1.5,2.19,11111222 
ENP,ioos.station.NOAA.NDBC:LRIF1:1,2019-11-06T01:00:00Z,25.2840,-80.8940,1.5,2.17,11111222 
ENP,ioos.station.NOAA.NDBC:LRIF1:1,2019-11-06T02:00:00Z,25.2840,-80.8940,1.5,2.13,11111222 
ENP,ioos.station.NOAA.NDBC:LRIF1:1,2019-11-06T03:00:00Z,25.2840,-80.8940,1.5,2.04,11111222 
ENP,ioos.station.NOAA.NDBC:LRIF1:1,2019-11-06T05:00:00Z,25.2840,-80.8940,1.5,1.98,11111222 
ENP,ioos.station.NOAA.NDBC:LRIF1:1,2019-11-06T07:00:00Z,25.2840,-80.8940,1.5,2.08,11111222 
ENP,ioos.station.NOAA.NDBC:LRIF1:1,2019-11-06T08:00:00Z,25.2840,-80.8940,1.5,2.36,11111222 
ENP,ioos.station.NOAA.NDBC:LRIF1:1,2019-11-06T09:00:00Z,25.2840,-80.8940,1.5,2.88,11111222 
ENP,ioos.station.NOAA.NDBC:LRIF1:1,2019-11-06T10:00:00Z,25.2840,-80.8940,1.5,3.21,11111222 
ENP,ioos.station.NOAA.NDBC:LRIF1:1,2019-11-06T11:00:00Z,25.2840,-80.8940,1.5,2.83,11111222 
ENP,ioos.station.NOAA.NDBC:LRIF1:1,2019-11-06T12:00:00Z,25.2840,-80.8940,1.5,2.47,11111222 
ENP,ioos.station.NOAA.NDBC:LRIF1:1,2019-11-06T13:00:00Z,25.2840,-80.8940,1.5,2.41,11111222 
ENP,ioos.station.NOAA.NDBC:LRIF1:1,2019-11-06T14:00:00Z,25.2840,-80.8940,1.5,2.29,11111222 
ENP,ioos.station.NOAA.NDBC:LRIF1:1,2019-11-06T15:00:00Z,25.2840,-80.8940,1.5,2.2,11111222 
ENP,ioos.station.NOAA.NDBC:LRIF1:1,2019-11-06T16:00:00Z,25.2840,-80.8940,1.5,2.03,11111222 
ENP,ioos.station.NOAA.NDBC:LRIF1:1,2019-11-06T17:00:00Z,25.2840,-80.8940,1.5,2.06,11111222 
ENP,ioos.station.NOAA.NDBC:LRIF1:1,2019-11-06T18:00:00Z,25.2840,-80.8940,1.5,2.09,11111222 
ENP,ioos.station.NOAA.NDBC:LRIF1:1,2019-11-06T19:00:00Z,25.2840,-80.8940,1.5,2.18,11111222 
ENP,ioos.station.NOAA.NDBC:LRIF1:1,2019-11-06T20:00:00Z,25.2840,-80.8940,1.5,2.3,11111222 
ENP,ioos.station.NOAA.NDBC:LRIF1:1,2019-11-06T21:00:00Z,25.2840,-80.8940,1.5,2.31,11111222 
ENP,ioos.station.NOAA.NDBC:LRIF1:1,2019-11-06T22:00:00Z,25.2840,-80.8940,1.5,2.23,11111222 
ENP,ioos.station.NOAA.NDBC:LRIF1:1,2019-11-06T23:00:00Z,25.2840,-80.8940,1.5,2.13,11111222 
ENP,ioos.station.NOAA.NDBC:LRIF1:1,2019-11-07T00:00:00Z,25.2840,-80.8940,1.5,2.09,11111222 
ENP,ioos.station.NOAA.NDBC:LRIF1:1,2019-11-07T01:00:00Z,25.2840,-80.8940,1.5,2.03,11111222 
ENP,ioos.station.NOAA.NDBC:LRIF1:1,2019-11-07T02:00:00Z,25.2840,-80.8940,1.5,1.97,11111222 
ENP,ioos.station.NOAA.NDBC:LRIF1:1,2019-11-07T03:00:00Z,25.2840,-80.8940,1.5,1.93,11111222 
ENP,ioos.station.NOAA.NDBC:LRIF1:1,2019-11-07T05:00:00Z,25.2840,-80.8940,1.5,1.84,11111222 
ENP,ioos.station.NOAA.NDBC:LRIF1:1,2019-11-07T06:00:00Z,25.2840,-80.8940,1.5,1.81,11111222 
ENP,ioos.station.NOAA.NDBC:LRIF1:1,2019-11-07T07:00:00Z,25.2840,-80.8940,1.5,1.78,11111222 
ENP,ioos.station.NOAA.NDBC:LRIF1:1,2019-11-07T08:00:00Z,25.2840,-80.8940,1.5,1.78,11111222 
ENP,ioos.station.NOAA.NDBC:LRIF1:1,2019-11-07T09:00:00Z,25.2840,-80.8940,1.5,1.92,11111222 
ENP,ioos.station.NOAA.NDBC:LRIF1:1,2019-11-07T10:00:00Z,25.2840,-80.8940,1.5,2.0,11111222 
ENP,ioos.station.NOAA.NDBC:LRIF1:1,2019-11-07T11:00:00Z,25.2840,-80.8940,1.5,1.93,11111222 
ENP,ioos.station.NOAA.NDBC:LRIF1:1,2019-11-07T12:00:00Z,25.2840,-80.8940,1.5,1.83,11111222 
ENP,ioos.station.NOAA.NDBC:LRIF1:1,2019-11-07T13:00:00Z,25.2840,-80.8940,1.5,1.77,11111222 
ENP,ioos.station.NOAA.NDBC:LRIF1:1,2019-11-07T14:00:00Z,25.2840,-80.8940,1.5,1.72,11111222 
ENP,ioos.station.NOAA.NDBC:LRIF1:1,2019-11-07T15:00:00Z,25.2840,-80.8940,1.5,1.68,11111222 
ENP,ioos.station.NOAA.NDBC:LRIF1:1,2019-11-07T16:00:00Z,25.2840,-80.8940,1.5,1.65,11111222 
ENP,ioos.station.NOAA.NDBC:LRIF1:1,2019-11-07T17:00:00Z,25.2840,-80.8940,1.5,1.63,11111222 
ENP,ioos.station.NOAA.NDBC:LRIF1:1,2019-11-07T18:00:00Z,25.2840,-80.8940,1.5,1.61,11111222 
ENP,ioos.station.NOAA.NDBC:LRIF1:1,2019-11-07T19:00:00Z,25.2840,-80.8940,1.5,1.59,11111222 
ENP,ioos.station.NOAA.NDBC:LRIF1:1,2019-11-07T20:00:00Z,25.2840,-80.8940,1.5,1.68,11111222 
ENP,ioos.station.NOAA.NDBC:LRIF1:1,2019-11-07T21:00:00Z,25.2840,-80.8940,1.5,1.82,11111222 
ENP,ioos.station.NOAA.NDBC:LRIF1:1,2019-11-07T22:00:00Z,25.2840,-80.8940,1.5,1.9,11111222 
ENP,ioos.station.NOAA.NDBC:LRIF1:1,2019-11-07T23:00:00Z,25.2840,-80.8940,1.5,1.92,11111222 
ENP,ioos.station.NOAA.NDBC:LRIF1:1,2019-11-08T00:00:00Z,25.2840,-80.8940,1.5,1.73,11111222 
ENP,ioos.station.NOAA.NDBC:LRIF1:1,2019-11-08T01:00:00Z,25.2840,-80.8940,1.5,1.67,11111222 
ENP,ioos.station.NOAA.NDBC:LRIF1:1,2019-11-08T03:00:00Z,25.2840,-80.8940,1.5,1.59,11111222 
ENP,ioos.station.NOAA.NDBC:LRIF1:1,2019-11-08T05:00:00Z,25.2840,-80.8940,1.5,1.54,11111222 
ENP,ioos.station.NOAA.NDBC:LRIF1:1,2019-11-08T07:00:00Z,25.2840,-80.8940,1.5,1.54,11111222 
ENP,ioos.station.NOAA.NDBC:LRIF1:1,2019-11-08T08:00:00Z,25.2840,-80.8940,1.5,1.74,11111222 
ENP,ioos.station.NOAA.NDBC:LRIF1:1,2019-11-08T09:00:00Z,25.2840,-80.8940,1.5,1.87,11111222 
ENP,ioos.station.NOAA.NDBC:LRIF1:1,2019-11-08T10:00:00Z,25.2840,-80.8940,1.5,2.07,11111222 
ENP,ioos.station.NOAA.NDBC:LRIF1:1,2019-11-08T11:00:00Z,25.2840,-80.8940,1.5,2.49,11111222 
ENP,ioos.station.NOAA.NDBC:LRIF1:1,2019-11-08T12:00:00Z,25.2840,-80.8940,1.5,2.77,11111222 
ENP,ioos.station.NOAA.NDBC:LRIF1:1,2019-11-08T14:00:00Z,25.2840,-80.8940,1.5,2.02,11111222 
ENP,ioos.station.NOAA.NDBC:LRIF1:1,2019-11-08T15:00:00Z,25.2840,-80.8940,1.5,1.83,11111222 
ENP,ioos.station.NOAA.NDBC:LRIF1:1,2019-11-08T17:00:00Z,25.2840,-80.8940,1.5,1.71,11111222 
ENP,ioos.station.NOAA.NDBC:LRIF1:1,2019-11-08T18:00:00Z,25.2840,-80.8940,1.5,1.81,11111222 
ENP,ioos.station.NOAA.NDBC:LRIF1:1,2019-11-08T19:00:00Z,25.2840,-80.8940,1.5,1.84,11111222 
ENP,ioos.station.NOAA.NDBC:LRIF1:1,2019-11-08T20:00:00Z,25.2840,-80.8940,1.5,2.15,11111222 
ENP,ioos.station.NOAA.NDBC:LRIF1:1,2019-11-08T21:00:00Z,25.2840,-80.8940,1.5,2.88,11111222 
ENP,ioos.station.NOAA.NDBC:LRIF1:1,2019-11-08T22:00:00Z,25.2840,-80.8940,1.5,4.03,11111222 
ENP,ioos.station.NOAA.NDBC:LRIF1:1,2019-11-08T23:00:00Z,25.2840,-80.8940,1.5,4.78,11111222 
ENP,ioos.station.NOAA.NDBC:LRIF1:1,2019-11-09T00:00:00Z,25.2840,-80.8940,1.5,5.3,11111222 
ENP,ioos.station.NOAA.NDBC:LRIF1:1,2019-11-09T01:00:00Z,25.2840,-80.8940,1.5,5.48,11111222 
ENP,ioos.station.NOAA.NDBC:LRIF1:1,2019-11-09T02:00:00Z,25.2840,-80.8940,1.5,5.03,11111222 
ENP,ioos.station.NOAA.NDBC:LRIF1:1,2019-11-09T03:00:00Z,25.2840,-80.8940,1.5,4.51,11111222 
ENP,ioos.station.NOAA.NDBC:LRIF1:1,2019-11-09T05:00:00Z,25.2840,-80.8940,1.5,4.58,11111222 
ENP,ioos.station.NOAA.NDBC:LRIF1:1,2019-11-09T06:00:00Z,25.2840,-80.8940,1.5,4.51,11111222 
ENP,ioos.station.NOAA.NDBC:LRIF1:1,2019-11-09T07:00:00Z,25.2840,-80.8940,1.5,4.28,11111222 
ENP,ioos.station.NOAA.NDBC:LRIF1:1,2019-11-09T08:00:00Z,25.2840,-80.8940,1.5,4.61,11111222 
ENP,ioos.station.NOAA.NDBC:LRIF1:1,2019-11-09T09:00:00Z,25.2840,-80.8940,1.5,5.26,11111222 
ENP,ioos.station.NOAA.NDBC:LRIF1:1,2019-11-09T10:00:00Z,25.2840,-80.8940,1.5,5.93,11111222 
ENP,ioos.station.NOAA.NDBC:LRIF1:1,2019-11-09T11:00:00Z,25.2840,-80.8940,1.5,6.29,11111222 
ENP,ioos.station.NOAA.NDBC:LRIF1:1,2019-11-09T12:00:00Z,25.2840,-80.8940,1.5,6.4,11111222 
ENP,ioos.station.NOAA.NDBC:LRIF1:1,2019-11-09T13:00:00Z,25.2840,-80.8940,1.5,5.65,11111222 
ENP,ioos.station.NOAA.NDBC:LRIF1:1,2019-11-09T14:00:00Z,25.2840,-80.8940,1.5,4.91,11111222 
ENP,ioos.station.NOAA.NDBC:LRIF1:1,2019-11-09T15:00:00Z,25.2840,-80.8940,1.5,4.61,11111222 
ENP,ioos.station.NOAA.NDBC:LRIF1:1,2019-11-09T16:00:00Z,25.2840,-80.8940,1.5,4.44,11111222 
ENP,ioos.station.NOAA.NDBC:LRIF1:1,2019-11-09T17:00:00Z,25.2840,-80.8940,1.5,4.25,11111222 
ENP,ioos.station.NOAA.NDBC:LRIF1:1,2019-11-09T18:00:00Z,25.2840,-80.8940,1.5,4.08,11111222 
ENP,ioos.station.NOAA.NDBC:LRIF1:1,2019-11-09T19:00:00Z,25.2840,-80.8940,1.5,3.91,11111222 
ENP,ioos.station.NOAA.NDBC:LRIF1:1,2019-11-09T20:00:00Z,25.2840,-80.8940,1.5,3.79,11111222 
ENP,ioos.station.NOAA.NDBC:LRIF1:1,2019-11-09T21:00:00Z,25.2840,-80.8940,1.5,3.75,11111222 
ENP,ioos.station.NOAA.NDBC:LRIF1:1,2019-11-09T22:00:00Z,25.2840,-80.8940,1.5,3.81,11111222 
ENP,ioos.station.NOAA.NDBC:LRIF1:1,2019-11-09T23:00:00Z,25.2840,-80.8940,1.5,3.91,11111222 
ENP,ioos.station.NOAA.NDBC:LRIF1:1,2019-11-10T00:00:00Z,25.2840,-80.8940,1.5,4.0,11111222 
ENP,ioos.station.NOAA.NDBC:LRIF1:1,2019-11-10T02:00:00Z,25.2840,-80.8940,1.5,3.71,11111222 
ENP,ioos.station.NOAA.NDBC:LRIF1:1,2019-11-10T03:00:00Z,25.2840,-80.8940,1.5,3.51,11111222 
ENP,ioos.station.NOAA.NDBC:LRIF1:1,2019-11-10T05:00:00Z,25.2840,-80.8940,1.5,3.12,11111222 
ENP,ioos.station.NOAA.NDBC:LRIF1:1,2019-11-10T06:00:00Z,25.2840,-80.8940,1.5,2.9,11111222 
ENP,ioos.station.NOAA.NDBC:LRIF1:1,2019-11-10T07:00:00Z,25.2840,-80.8940,1.5,2.81,11111222 
ENP,ioos.station.NOAA.NDBC:LRIF1:1,2019-11-10T08:00:00Z,25.2840,-80.8940,1.5,2.75,11111222 
ENP,ioos.station.NOAA.NDBC:LRIF1:1,2019-11-10T09:00:00Z,25.2840,-80.8940,1.5,2.74,11111222 
ENP,ioos.station.NOAA.NDBC:LRIF1:1,2019-11-10T10:00:00Z,25.2840,-80.8940,1.5,2.77,11111222 
ENP,ioos.station.NOAA.NDBC:LRIF1:1,2019-11-10T11:00:00Z,25.2840,-80.8940,1.5,3.04,11111222 
ENP,ioos.station.NOAA.NDBC:LRIF1:1,2019-11-10T12:00:00Z,25.2840,-80.8940,1.5,3.2,11111222 
ENP,ioos.station.NOAA.NDBC:LRIF1:1,2019-11-10T13:00:00Z,25.2840,-80.8940,1.5,3.19,11111222 
ENP,ioos.station.NOAA.NDBC:LRIF1:1,2019-11-10T14:00:00Z,25.2840,-80.8940,1.5,3.06,11111222 
ENP,ioos.station.NOAA.NDBC:LRIF1:1,2019-11-10T15:00:00Z,25.2840,-80.8940,1.5,2.82,11111222 
ENP,ioos.station.NOAA.NDBC:LRIF1:1,2019-11-10T16:00:00Z,25.2840,-80.8940,1.5,2.65,11111222 
ENP,ioos.station.NOAA.NDBC:LRIF1:1,2019-11-10T17:00:00Z,25.2840,-80.8940,1.5,2.57,11111222 
ENP,ioos.station.NOAA.NDBC:LRIF1:1,2019-11-10T19:00:00Z,25.2840,-80.8940,1.5,2.53,11111222 
ENP,ioos.station.NOAA.NDBC:LRIF1:1,2019-11-10T20:00:00Z,25.2840,-80.8940,1.5,2.44,11111222 
ENP,ioos.station.NOAA.NDBC:LRIF1:1,2019-11-10T21:00:00Z,25.2840,-80.8940,1.5,2.4,11111222 
ENP,ioos.station.NOAA.NDBC:LRIF1:1,2019-11-10T22:00:00Z,25.2840,-80.8940,1.5,2.42,11111222 
ENP,ioos.station.NOAA.NDBC:LRIF1:1,2019-11-11T01:00:00Z,25.2840,-80.8940,1.5,2.76,11111222 
ENP,ioos.station.NOAA.NDBC:LRIF1:1,2019-11-11T08:00:00Z,25.2840,-80.8940,1.5,2.29,11111222 
ENP,ioos.station.NOAA.NDBC:LRIF1:1,2019-11-11T12:00:00Z,25.2840,-80.8940,1.5,3.12,11111222 
ENP,ioos.station.NOAA.NDBC:LRIF1:1,2019-11-11T13:00:00Z,25.2840,-80.8940,1.5,3.4,11111222 
ENP,ioos.station.NOAA.NDBC:LRIF1:1,2019-11-11T14:00:00Z,25.2840,-80.8940,1.5,2.96,11111222 
ENP,ioos.station.NOAA.NDBC:LRIF1:1,2019-11-11T17:00:00Z,25.2840,-80.8940,1.5,2.48,11111222 
ENP,ioos.station.NOAA.NDBC:LRIF1:1,2019-11-11T18:00:00Z,25.2840,-80.8940,1.5,2.43,11111222 
ENP,ioos.station.NOAA.NDBC:LRIF1:1,2019-11-11T19:00:00Z,25.2840,-80.8940,1.5,2.39,11111222 
ENP,ioos.station.NOAA.NDBC:LRIF1:1,2019-11-11T20:00:00Z,25.2840,-80.8940,1.5,2.37,11111222 
ENP,ioos.station.NOAA.NDBC:LRIF1:1,2019-11-11T21:00:00Z,25.2840,-80.8940,1.5,2.34,11111222 
ENP,ioos.station.NOAA.NDBC:LRIF1:1,2019-11-11T22:00:00Z,25.2840,-80.8940,1.5,2.36,11111222 
ENP,ioos.station.NOAA.NDBC:LRIF1:1,2019-11-11T23:00:00Z,25.2840,-80.8940,1.5,2.52,11111222 
ENP,ioos.station.NOAA.NDBC:LRIF1:1,2019-11-12T00:00:00Z,25.2840,-80.8940,1.5,2.83,11111222 
ENP,ioos.station.NOAA.NDBC:LRIF1:1,2019-11-12T01:00:00Z,25.2840,-80.8940,1.5,3.31,11111222 
ENP,ioos.station.NOAA.NDBC:LRIF1:1,2019-11-12T02:00:00Z,25.2840,-80.8940,1.5,3.74,11111222 
ENP,ioos.station.NOAA.NDBC:LRIF1:1,2019-11-12T03:00:00Z,25.2840,-80.8940,1.5,3.81,11111222 
ENP,ioos.station.NOAA.NDBC:LRIF1:1,2019-11-12T05:00:00Z,25.2840,-80.8940,1.5,2.72,11111222 
ENP,ioos.station.NOAA.NDBC:LRIF1:1,2019-11-12T07:00:00Z,25.2840,-80.8940,1.5,3.4,11111222 
ENP,ioos.station.NOAA.NDBC:LRIF1:1,2019-11-12T08:00:00Z,25.2840,-80.8940,1.5,3.41,11111222 
ENP,ioos.station.NOAA.NDBC:LRIF1:1,2019-11-12T09:00:00Z,25.2840,-80.8940,1.5,3.87,11111222 
ENP,ioos.station.NOAA.NDBC:LRIF1:1,2019-11-12T10:00:00Z,25.2840,-80.8940,1.5,4.7,11111222 
ENP,ioos.station.NOAA.NDBC:LRIF1:1,2019-11-12T11:00:00Z,25.2840,-80.8940,1.5,5.65,11111222 
ENP,ioos.station.NOAA.NDBC:LRIF1:1,2019-11-12T12:00:00Z,25.2840,-80.8940,1.5,6.16,11111222 
ENP,ioos.station.NOAA.NDBC:LRIF1:1,2019-11-12T14:00:00Z,25.2840,-80.8940,1.5,6.66,11111222 
ENP,ioos.station.NOAA.NDBC:LRIF1:1,2019-11-12T15:00:00Z,25.2840,-80.8940,1.5,6.89,11111222 
ENP,ioos.station.NOAA.NDBC:LRIF1:1,2019-11-12T16:00:00Z,25.2840,-80.8940,1.5,6.47,11111222 
ENP,ioos.station.NOAA.NDBC:LRIF1:1,2019-11-12T17:00:00Z,25.2840,-80.8940,1.5,6.34,11111222 
ENP,ioos.station.NOAA.NDBC:LRIF1:1,2019-11-12T18:00:00Z,25.2840,-80.8940,1.5,6.0,11111222 
ENP,ioos.station.NOAA.NDBC:LRIF1:1,2019-11-12T19:00:00Z,25.2840,-80.8940,1.5,5.86,11111222 
ENP,ioos.station.NOAA.NDBC:LRIF1:1,2019-11-12T20:00:00Z,25.2840,-80.8940,1.5,6.23,11111222 
ENP,ioos.station.NOAA.NDBC:LRIF1:1,2019-11-12T21:00:00Z,25.2840,-80.8940,1.5,5.66,11111222 
ENP,ioos.station.NOAA.NDBC:LRIF1:1,2019-11-12T22:00:00Z,25.2840,-80.8940,1.5,5.43,11111222 
ENP,ioos.station.NOAA.NDBC:LRIF1:1,2019-11-12T23:00:00Z,25.2840,-80.8940,1.5,5.72,11111222 
ENP,ioos.station.NOAA.NDBC:LRIF1:1,2019-11-13T00:00:00Z,25.2840,-80.8940,1.5,6.22,11111222 
ENP,ioos.station.NOAA.NDBC:LRIF1:1,2019-11-13T01:00:00Z,25.2840,-80.8940,1.5,6.69,11111222 
ENP,ioos.station.NOAA.NDBC:LRIF1:1,2019-11-13T02:00:00Z,25.2840,-80.8940,1.5,6.98,11111222 
ENP,ioos.station.NOAA.NDBC:LRIF1:1,2019-11-13T03:00:00Z,25.2840,-80.8940,1.5,7.26,11111222 
ENP,ioos.station.NOAA.NDBC:LRIF1:1,2019-11-13T05:00:00Z,25.2840,-80.8940,1.5,7.31,11111222 
ENP,ioos.station.NOAA.NDBC:LRIF1:1,2019-11-13T07:00:00Z,25.2840,-80.8940,1.5,7.44,11111222 
ENP,ioos.station.NOAA.NDBC:LRIF1:1,2019-11-13T08:00:00Z,25.2840,-80.8940,1.5,7.41,11111222 
ENP,ioos.station.NOAA.NDBC:LRIF1:1,2019-11-13T09:00:00Z,25.2840,-80.8940,1.5,7.39,11111222 
ENP,ioos.station.NOAA.NDBC:LRIF1:1,2019-11-13T10:00:00Z,25.2840,-80.8940,1.5,7.47,11111222 
ENP,ioos.station.NOAA.NDBC:LRIF1:1,2019-11-13T11:00:00Z,25.2840,-80.8940,1.5,7.69,11111222 
ENP,ioos.station.NOAA.NDBC:LRIF1:1,2019-11-13T12:00:00Z,25.2840,-80.8940,1.5,7.89,11111222 
ENP,ioos.station.NOAA.NDBC:LRIF1:1,2019-11-13T13:00:00Z,25.2840,-80.8940,1.5,8.04,11111222 
ENP,ioos.station.NOAA.NDBC:LRIF1:1,2019-11-13T14:00:00Z,25.2840,-80.8940,1.5,8.1,11111222 
ENP,ioos.station.NOAA.NDBC:LRIF1:1,2019-11-13T15:00:00Z,25.2840,-80.8940,1.5,7.37,11111222 
ENP,ioos.station.NOAA.NDBC:LRIF1:1,2019-11-13T17:00:00Z,25.2840,-80.8940,1.5,6.02,11111222 
ENP,ioos.station.NOAA.NDBC:LRIF1:1,2019-11-13T18:00:00Z,25.2840,-80.8940,1.5,5.99,11111222 
ENP,ioos.station.NOAA.NDBC:LRIF1:1,2019-11-13T19:00:00Z,25.2840,-80.8940,1.5,6.0,11111222 
ENP,ioos.station.NOAA.NDBC:LRIF1:1,2019-11-13T20:00:00Z,25.2840,-80.8940,1.5,5.95,11111222 
ENP,ioos.station.NOAA.NDBC:LRIF1:1,2019-11-13T21:00:00Z,25.2840,-80.8940,1.5,5.92,11111222 
ENP,ioos.station.NOAA.NDBC:LRIF1:1,2019-11-13T22:00:00Z,25.2840,-80.8940,1.5,5.88,11111222 
ENP,ioos.station.NOAA.NDBC:LRIF1:1,2019-11-13T23:00:00Z,25.2840,-80.8940,1.5,6.11,11111222 
ENP,ioos.station.NOAA.NDBC:LRIF1:1,2019-11-14T00:00:00Z,25.2840,-80.8940,1.5,6.57,11111222 
ENP,ioos.station.NOAA.NDBC:LRIF1:1,2019-11-14T01:00:00Z,25.2840,-80.8940,1.5,7.04,11111222 
ENP,ioos.station.NOAA.NDBC:LRIF1:1,2019-11-14T03:00:00Z,25.2840,-80.8940,1.5,7.71,11111222 
ENP,ioos.station.NOAA.NDBC:LRIF1:1,2019-11-14T05:00:00Z,25.2840,-80.8940,1.5,6.02,11111222 